Погода в Чаплыгине

Россия / Краснодарский край     45°06′54″N   40°45′48″E
темп.,
°C
ветер,
м/с
пор.,
м/с
влажн.,
%
обл.,
%
осадки,
мм/ч
давл.,
гПа
погр.,
м
17 июня, чт
чт1700:00+21в4117968 0.2 1004215
03:00+19с129021 3.0 100437
06:00+18сз4995100 1.3 1007282
09:00+21сз71084100 1.3 1010856
12:00+23зсз5768100 0.1 1011979
15:00+24зсз8962100 0.3 10131164
18:00+22зсз697046 0.0 1015973
21:00+16сз37880 0.0 1017145
18 июня, пт
пт1800:00+15юз33940 0.0 101752
03:00+14ююз11930 0.0 101712
06:00+16зсз018719 0.0 101872
09:00+21с11680 0.0 1017593
12:00+24с33600 0.0 10171058
15:00+26ссв34570 0.0 10151338
18:00+26св126220 0.0 10151271
21:00+20всв33850 0.1 101634
19 июня, сб
сб1900:00+19в34860 0.0 101566
03:00+18в37900 0.0 1015110
06:00+20в412870 0.0 1014359
09:00+25в7117020 0.0 10131004
12:00+28в10126141 0.0 10121625
15:00+29в814604 0.0 10111778
18:00+26в915610 0.0 1010977
21:00+24в919524 0.0 1011838
20 июня, вс
вс2000:00+22в818534 0.0 1010735
03:00+20в8175699 0.0 1010630
06:00+19в61467100 0.0 1011482
09:00+22вюв796741 0.0 1011569
12:00+27вюв56590 0.0 10111024
15:00+30вюв56560 0.0 10101404
18:00+29юв35650 0.0 1009431
21:00+24в33790 0.0 101038
21 июня, пн
пн2100:00+23в511541 0.0 1010307
03:00+19в410560 0.0 1010230
06:00+18в410700 0.0 1010228
09:00+24вюв566242 0.0 1009457
12:00+29в56560 0.0 1009988
15:00+30вюв675467 0.0 10091560
18:00+27в2372100 0.0 100857
21:00+24всв227875 0.0 100923